Tracking 19146 objects as of 24-Apr-2018
HD Live streaming from Space Station
objects crossing your sky now

FLOCK 3P 59

Track FLOCK 3P 59 now!
10-day predictions
FLOCK 3P 59 is classified as:


NORAD ID: 42022
Int'l Code: 2017-008CC
Perigee: 494.1 km
Apogee: 505.4 km
Inclination: 97.5 °
Period: 94.5 minutes
Semi major axis: 6870 km
RCS: Unknown
Launch date: February 15, 2017
Source: United States (US)
Launch site: SRIHARIKOTA (SRI)
aabbcc
Your satellite tracking list
Your tracking list is empty




NASA's NSSDC Master Catalog

Two Line Element Set (TLE):
1 42022U 17008CC  18113.90401815 +.00002590 +00000-0 +10855-3 0  9996
2 42022 097.4543 179.1270 0008230 174.0355 186.0982 15.24402128064709
Source of the keplerian elements: AFSPC